Location: Karcze
(52.0945°N, 22.4786°E)
Time: 12:03:25
(UTC+00:00)

ERS-2 - Pass Details

Date: 14 July 2020
Orbit: 493 x 498 km, 98.5° (Epoch: 08 August)

Event Time Altitude Azimuth Distance (km) Brightness Sun altitude
Rises 00:56:09 0° 136° (SE) 2,574 5.6 -10.2°
Reaches altitude 10° 00:58:24 10° 125° (SE) 1,695 4.8 -10.0°
Maximum altitude 01:01:33 29° 64° (ENE) 945 4.3 -9.7°
Drops below altitude 10° 01:04:45 10° 4° (N) 1,705 5.8 -9.4°
Sets 01:07:00 0° 353° (N) 2,593 6.6 -9.3°
